Simultaneous Nadir Overpasses (SNOs) Predictions

Prediction of SNOs between METOP-B and NPP Satellite Orbit:

Table of predicted SNOs for the next 14.0 days since TLE Epoch: 6/8/2024
Index Date (METOP-B) Time (METOP-B) Lat,Lon (METOP-B) SZA (METOP-B ) Date (NPP) Time (NPP) Lat,Lon (NPP) SZA (NPP ) Distance(km) Time Diff (sec)
1 06/13/2024 01:49:09 -74.02, -34.98 129.14 06/13/2024 01:48:02 -74.02, -37.97 128.96 91.60 67
2 06/13/2024 02:39:53 73.78, 131.81 50.66 06/13/2024 02:38:43 73.79, 129.90 50.79 59.19 70
3 06/13/2024 03:30:36 -73.74, -60.98 129.39 06/13/2024 03:29:26 -73.74, -62.66 129.28 52.13 70
4 06/13/2024 04:21:20 73.50, 105.81 50.41 06/13/2024 04:20:07 73.50, 105.20 50.46 19.53 73
5 06/13/2024 05:12:04 -73.40, -87.08 129.68 06/13/2024 05:10:49 -73.40, -87.25 129.66 5.54 75
6 06/13/2024 06:02:44 73.37, 80.17 50.29 06/13/2024 06:01:34 73.36, 80.13 50.31 1.29 70
7 06/13/2024 06:53:26 -73.37,-112.49 129.71 06/13/2024 06:52:18 -73.36,-112.54 129.70 1.78 68
8 06/13/2024 07:44:06 73.33, 54.76 50.26 06/13/2024 07:43:03 73.33, 54.85 50.26 2.81 63
9 06/13/2024 08:34:48 -73.34,-137.91 129.75 06/13/2024 08:33:47 -73.32,-137.83 129.75 2.74 61
10 06/13/2024 09:25:27 73.35, 29.46 50.27 06/13/2024 09:24:33 73.34, 29.44 50.27 1.33 54
11 06/13/2024 10:16:09 -73.35,-163.21 129.74 06/13/2024 10:15:17 -73.34,-163.23 129.74 2.04 52
12 06/13/2024 11:06:49 73.32, 4.05 50.24 06/13/2024 11:06:03 73.35, 4.04 50.28 3.83 46
13 06/13/2024 11:57:31 -73.32, 171.38 129.77 06/13/2024 11:56:47 -73.35, 171.37 129.73 3.19 44
14 06/13/2024 12:48:10 73.33, -21.26 50.25 06/13/2024 12:47:32 73.31, -21.25 50.23 2.29 38
15 06/13/2024 13:38:52 -73.34, 146.08 129.76 06/13/2024 13:38:16 -73.31, 146.08 129.77 2.92 36
16 06/13/2024 14:29:32 73.30, -46.67 50.21 06/13/2024 14:29:02 73.33, -46.65 50.24 2.93 30
17 06/13/2024 15:20:14 -73.30, 120.66 129.79 06/13/2024 15:19:46 -73.32, 120.68 129.76 2.17 28
18 06/13/2024 16:10:53 73.32, -71.97 50.23 06/13/2024 16:10:32 73.34, -72.05 50.26 3.33 21
19 06/13/2024 17:01:35 -73.32, 95.36 129.78 06/13/2024 17:01:16 -73.33, 95.27 129.75 3.18 19
20 06/13/2024 17:52:15 73.28, -97.39 50.19 06/13/2024 17:52:01 73.30, -97.34 50.21 2.42 14
21 06/13/2024 18:42:57 -73.29, 69.95 129.81 06/13/2024 18:42:45 -73.30, 69.99 129.80 1.64 12
22 06/13/2024 19:33:36 73.30,-122.69 50.20 06/13/2024 19:33:31 73.31,-122.74 50.22 2.07 5
23 06/13/2024 20:24:18 -73.30, 44.65 129.80 06/13/2024 20:24:15 -73.31, 44.58 129.79 2.04 3
24 06/13/2024 21:14:58 73.27,-148.10 50.17 06/13/2024 21:15:00 73.27,-148.03 50.17 2.53 2
25 06/13/2024 22:05:40 -73.27, 19.23 129.83 06/13/2024 22:05:44 -73.27, 19.29 129.83 1.99 4
26 06/13/2024 22:56:19 73.28,-173.40 50.18 06/13/2024 22:56:30 73.29,-173.43 50.19 0.85 11
27 06/13/2024 23:47:01 -73.29, -6.07 129.82 06/13/2024 23:47:14 -73.28, -6.11 129.82 1.23 13
28 06/14/2024 00:37:41 73.25, 161.18 50.15 06/14/2024 00:37:59 73.25, 161.28 50.14 3.18 18
29 06/14/2024 01:28:23 -73.25, -31.48 129.85 06/14/2024 01:28:43 -73.25, -31.40 129.87 2.91 20
30 06/14/2024 02:19:02 73.27, 135.88 50.16 06/14/2024 02:19:29 73.26, 135.88 50.15 0.63 27
31 06/14/2024 03:09:44 -73.27, -56.79 129.84 06/14/2024 03:10:13 -73.26, -56.80 129.86 1.46 29
32 06/14/2024 04:00:23 73.28, 110.58 50.17 06/14/2024 04:00:59 73.27, 110.48 50.16 3.32 36
33 06/14/2024 04:51:06 -73.24, -82.20 129.87 06/14/2024 04:51:43 -73.27, -82.20 129.85 3.67 37
34 06/14/2024 05:41:45 73.25, 85.16 50.14 06/14/2024 05:42:28 73.23, 85.19 50.12 1.79 43
35 06/14/2024 06:32:27 -73.25,-107.50 129.86 06/14/2024 06:33:12 -73.23,-107.49 129.89 2.44 45
36 06/14/2024 07:23:06 73.27, 59.86 50.15 06/14/2024 07:23:58 73.25, 59.79 50.13 3.12 52
37 06/14/2024 08:13:49 -73.22,-132.91 129.89 06/14/2024 08:14:42 -73.24,-132.89 129.88 2.79 53
38 06/14/2024 09:04:28 73.23, 34.45 50.12 06/14/2024 09:05:27 73.21, 34.50 50.08 3.02 59
39 06/14/2024 09:55:10 -73.24,-158.22 129.88 06/14/2024 09:56:12 -73.26,-158.29 129.87 3.22 62
40 06/14/2024 10:45:50 73.20, 9.04 50.09 06/14/2024 10:46:57 73.22, 9.10 50.09 3.26 67
41 06/14/2024 11:36:32 -73.20, 176.37 129.91 06/14/2024 11:37:41 -73.22, 176.42 129.92 2.30 69
42 06/14/2024 12:27:13 73.11, -16.49 50.01 06/14/2024 12:28:26 73.18, -16.19 50.05 12.22 73
43 06/14/2024 13:17:56 -73.07, 150.74 130.03 06/14/2024 13:19:09 -73.13, 151.24 130.02 17.43 73
44 06/14/2024 14:08:40 72.83, -42.43 49.76 06/14/2024 14:09:50 72.89, -40.94 49.73 49.40 70
45 06/14/2024 14:59:22 -72.78, 124.80 130.28 06/14/2024 15:00:32 -72.84, 126.48 130.34 55.61 70
46 06/14/2024 15:50:07 72.48, -68.46 49.47 06/14/2024 15:51:12 72.55, -65.61 49.35 95.59 65



Historial Predications of SNOs between METOP-B and NPP
